Regional Weather Roundup
Issued by NWS Wakefield, VA

Home | Current Version | Previous Version | Graphics & Text | Print | Product List | Glossary On
Versions: 1 2 3 4 5 6 7 8 9 10 11 12 13 14 15 16 17 18 19 20 21 22 23 24 25 26 27 28
000
ASUS41 KAKQ 240014
RWRAKQ

REGIONAL WEATHER ROUNDUP
NATIONAL WEATHER SERVICE WAKEFIELD VA
700 PM EST THU FEB 23 2017

Note: "fair" indicates few or no clouds below 12,000 feet with no
significant weather and/or obstructions to visibility. * = Denotes
station may not report precipitation (e.g., rain,snow,etc.),
thunder or fog.

VAZ042-051-052>054-056-240100-
NORTHERN VIRGINIA

CITY           SKY/WX    TMP DP  RH WIND       PRES   REMARKS
WASH NATIONAL  PTCLDY    65  53  65 S12       29.86R
DULLES         PTCLDY    68  51  54 S9        29.85R
FORT BELVOIR   CLEAR     69  52  54 S3        29.86R
QUANTICO       CLEAR     58  50  75 S9        29.87R
FREDERICKSBRG* CLEAR     69  53  57 S7        29.86R
STAFFORD*      CLEAR     68  52  55 CALM      29.91R
WARRENTON      PTCLDY    67  48  50 S6        29.86R
CULPEPER*      CLEAR     68  53  58 S5        29.87R
MANASSAS*        N/A     68  52  56 S6        29.86R
LEESBURG*      CLEAR     70  54  56 MISG      29.85R
WINCHESTER     PTCLDY    64  50  59 S6        29.83S
FRONT ROYAL*   NOT AVBL
LURAY*         NOT AVBL
$$

VAZ048-049-060>072-079>083-240100-
CENTRAL AND SOUTH CENTRAL VIRGINIA

CITY           SKY/WX    TMP DP  RH WIND       PRES   REMARKS
RICHMOND       PTCLDY    63  52  67 S7        29.89R
CHESTERFIELD*  FAIR      61  39  44 S5        29.91R
PETERSBURG*    CLEAR     55  51  86 CALM      29.91R
HANOVER        CLEAR     67  49  52 S6        29.90R
TAPPAHANNOCK*  CLEAR     66  44  44 S3        29.90R
QUINTON*       NOT AVBL
CHARLOTTSVILLE CLEAR     65  52  62 S8        29.87R
GORDONSVILLE*  NOT AVBL
ORANGE*        CLEAR     64  52  63 S3        29.89R
LOUISA*        CLEAR     72  55  56 S3        29.87R
BUMPASS*       NOT AVBL
FARMVILLE*     CLOUDY    65  55  70 CALM      29.88R
CREWE*         NOT AVBL
FORT PICKETT*  NOT AVBL
CHASE CITY*    NOT AVBL
CLARKSVILLE*   NOT AVBL
SOUTH HILL*    CLEAR     58  51  79 CALM      29.95F
LAWRENCEVILLE* NOT AVBL
EMPORIA*       PTCLDY    55  50  82 CALM      29.93R
$$

VAZ088>098-240100-
SOUTHEAST VIRGINIA

CITY           SKY/WX    TMP DP  RH WIND       PRES   REMARKS
NORFOLK        CLEAR     64  54  69 SE8       29.92R
VIRGINIA BEACH PTCLDY    60  51  72 S7        29.93R
NORFOLK NAVAL  PTCLDY    65  53  65 SE6       29.94R
WEST POINT*    CLEAR     64  48  56 SE3       29.92R
SALUDA*        NOT AVBL
NEWPORT NEWS   CLEAR     66  53  63 S8        29.92R
LANGLEY AFB    CLEAR     64  55  71 S8        29.91R
FORT EUSTIS    CLEAR     65  53  66 S6        29.89R
WILLIAMSBURG*  CLEAR     68  54  60 S3        29.92R
HR EXEC AP*    NOT AVBL
FRANKLIN*      CLEAR     64  53  66 SE3       29.92R
US460-WAKEFLD  CLEAR     64  53  67 CALM      29.91R
$$

VAZ020-022-025-037-045-240100-
WEST CENTRAL AND SOUTHWEST VIRGINIA

CITY           SKY/WX    TMP DP  RH WIND       PRES   REMARKS
STAUNTON*      CLEAR     63  50  63 S5        29.90R
WAYNESBORO*    NOT AVBL
HOT SPRINGS VA MOCLDY    55  45  67 CALM      29.96R
LYNCHBURG      CLEAR     63  52  67 S5        29.91R
DANVILLE       CLOUDY    60  53  77 CALM      29.89R
SOUTH BOSTON*  NOT AVBL
MARTINSVILLE   CLOUDY    61  55  79 CALM      29.91R
ROANOKE        MOCLDY    66  51  58 SE7       29.91R
BLACKSBURG     CLOUDY    63  51  63 SW3       29.94R
DUBLIN*        CLOUDY    63  50  63 S7        29.93R
MARION*        CLOUDY    63  52  67 CALM      29.95R
HILLSVILLE*    CLOUDY    59  52  78 CALM      29.92R
RICHLANDS*     CLOUDY    61  52  72 NE5       29.91R
WISE*          MOCLDY    61  50  67 CALM      29.91R
ABINGDON*      MOCLDY    65  52  62 CALM      29.89R
$$

MDZ021>025-VAZ099-100-240100-
SOUTHERN MARYLAND AND THE DELMARVA PENINSULA

CITY           SKY/WX    TMP DP  RH WIND       PRES   REMARKS
PATUXENT RIVER CLEAR     62  54  74 S8        29.89R
BAY BRIDGE APT CLEAR     59  52  77 S13       29.87R
LEONARDTOWN    CLEAR     63  52  67 SE5       29.91R
DOVER          CLEAR     60  56  84 S8        29.88R
GEORGETOWN     CLEAR     63  52  67 S9        29.91R
EASTON         CLEAR     64  52  63 S9        29.93R
CAMBRIDGE      CLEAR     61  52  72 S8G17     29.90R
SALISBURY      CLEAR     60  52  74 S7        29.92R
OCEAN CITY     CLEAR     52  49  89 S5        29.93R
WALLOPS ISLAND CLEAR     55  52  89 S12       29.93R
ACCOMACK*      CLEAR     59  53  79 S10       29.92R
$$

NCZ012>017-030>032-240100-
NORTH CENTRAL AND EASTERN NORTH CAROLINA

CITY           SKY/WX    TMP DP  RH WIND       PRES   REMARKS
ROANOKE RAPIDS FAIR      61  52  72 CALM      29.91R
RALEIGH        PTCLDY    67  49  52 S3        29.90R
ELIZABETH CITY MOCLDY    59  54  83 SE6       29.94R
AHOSKIE*         N/A     64  53  68 CALM      29.92R
EDENTON*       MOCLDY    63  55  77 CALM      29.93R
CURRITUCK*     MOCLDY    61  55  79 CALM      29.94R
KILL DEVIL HLS NOT AVBL
MANTEO         MOCLDY    57  54  88 E5        29.95R
CAPE HATTERAS  CLOUDY    68  58  70 SE10      29.93R
TARBORO*       NOT AVBL
GOLDSBORO      MOCLDY    69  55  60 SE6       29.89R
WASHINGTON     PTCLDY    63  56  78 E5        29.93R
GREENVILLE     CLOUDY    68  57  68 SE5       29.94R
NEW BERN       PTCLDY    64  59  83 CALM      29.93R
WILMINGTON     CLOUDY    62  57  83 NE5       29.89R
$$

VAZ048-240100-
ELSEWHERE

CITY           SKY/WX    TMP DP  RH WIND       PRES   REMARKS
HARRISBURG PA  MOCLDY    66  52  60 S8        29.81R
BALTIMORE      PTCLDY    64  52  64 SE6       29.85R
ANNAPOLIS      CLEAR     57  50  77 S10       29.87R
ANDREWS AFB    CLEAR     65  51  60 S7        29.85R
PHILADELPHIA   PTCLDY    66  52  60 S7        29.86R
HENDERSON NC   CLEAR     63  48  57 CALM      29.90S
GREENSBORO     MOCLDY    66  51  58 S6        29.88R
ROCKY MOUNT    CLEAR     60  53  77 CALM      29.91R
$$

VAZ100-240100-
MARINE

STATION/POSITION TIME  TEMP    WIND        PRES    WAVE   SWELL
                       AIR SEA DIR/SP/G            HT/PER HT/PER
                 (UTC) (F)     (DEG/KT/KT) (MB)    (FT/S) (FT/S)
CAPE MAY NJ      2342   56 46  160/ 12/ 16 1012.1R
LEWES DE         2342   62 43  180/  6/  9 1012.5R
OCEAN-CITY-INLET 2342   49 44  210/  9/ 10 1013.9R
WACHAPREAGUE VA  2342   57 54  220/  4/  6 1013.1R
THOMAS POINT MD  0000   54 44  170/ 17/ 18   N/A
GOOSES REEF MD   2350   50     160/ 14/ 16 1012.4R
COVE POINT MD    2342   53     190/ 15/ 16 1012.6R
SOLOMONS ISLAND  2342   56 45  160/  5/  6   N/A
BISHOPS HEAD MD  2342   51 53  160/  8/  9 1013.1R
PINEY POINT MD   2348          170/ 12/ 13   N/A
POTOMAC MD       2350   54     180/ 12/ 12 1011.8R
CAMBRIDGE MD     2342   62 42  170/  8/ 11 1011.6R
LEWISETTA VA     2342   63 48  170/  5/  6 1012.2R
RAPPAHANNOCK LGT 2348          160/ 15/ 15 1013.3R
YORK RVR RNG VA  2342   54     170/ 17/ 18 1012.1R
YORKTOWN VA      2342   67 46  170/  8/ 11 1012.5R
JAMESTOWN VA     2350   63     170/  6/  8   N/A
DOMINION TERM VA 2342   60     170/  9/ 10 1012.9R
KIPTOPEKE VA     2348      49  170/ 12/ 15   N/A
CHES BAY BRIDGE  2336   63 47  170/ 10/ 11 1013.1R
CAPE HENRY VA    2336   62     160/  7/  9   N/A
WILLOUBY STN VA  2336   66     160/ 11/ 13 1013.7R
S CRANEY ISL VA  2336   65     270/  1/  2 1012.7R
CAPE HENRY BUOY  2342      50                N/A     3/11   2/11
OFFSHORE WE BUOY 2351      49                N/A     3/12   2/12
64NM E OF VA BCH 2350   58 54  100/  6/  8 1013.7R   3/10   3/10
DUCK PIER NC     2336   56 49  120/  5/  5 1013.2R
44100 DUCK FRF   2335      50                N/A     3/11   2/11
44056 DUCK FRF   2330      51                N/A     3/11   2/11
OREGON INLET NC  2348           90/  4/  5   N/A
HATTERAS NC      2336   67 62  120/  7/ 13 1012.9R
DIAMOND SHLS NC  2350   69 74  150/ 16/ 19 1013.1R   5/ 6   3/11
CAPE LOOKOUT NC  2300   65     120/ 10/ 10 1012.0R
$$




USA.gov is the U.S. government's official web portal to all federal, state and local government web resources and services.